User: anonymous   Login
Location: Unspecified
(0.0000°N, 0.0000°E)
Time: 17:00:05
(UTC+00:00)
Language:

COSMOS 2489 - Orbit

View from above orbital plane
View from above orbital plane
View from above satellite
View from above satellite

Ground track
Ground track

The orbit data is extracted from the following two-line orbital elements,

1 39484U 13076B   19016.67843321  .00000014  00000-0  27774-4 0  9992
2 39484  82.4873  57.1890 0020937 237.9361 121.9686 12.42892380229683
Epoch (UTC): 16 January 2019 16:16:56
Eccentricity: 0.0020937
inclination: 82.4873°
perigee height: 1478 km
apogee height: 1511 km
right ascension of ascending node: 57.1890°
argument of perigee: 237.9361°
revolutions per day: 12.42892380
mean anomaly at epoch: 121.9686°
orbit number at epoch: 22968

The dashed part of the orbit path shows where the satellite is in the earth's shadow,  

DLR